Skip Page Navigation
NASA JPL Caltech
NASA Logo - Jet Propulsion Laboratory + View the NASA Portal
+ Near-Earth Object (NEO) Program
Search JPL
JPL Home Earth Solar System Stars & Galaxies Technology
JPL Solar System Dynamics
BODIES ORBITS EPHEMERIDES TOOLS PHYSICAL DATA DISCOVERY FAQ SITE MAP
JPL Small-Body Database Browser
Search: [ help ]  
38046 Krasnoyarsk (1998 SW144)
Classification: Outer Main-belt Asteroid          SPK-ID: 2038046
Ephemeris | Orbit Diagram | Orbital Elements | Physical Parameters | Discovery Circumstances | Close-Approach Data ]

[ show orbit diagram ]
Orbital Elements at Epoch 2456800.5 (2014-May-23.0) TDB
Reference: JPL 8 (heliocentric ecliptic J2000)
 Element Value Uncertainty (1-sigma)   Units 
e .2119236096631545 7.1692e-08  
a 3.962490094960178 6.1177e-08 AU
q 3.122744890781721 2.9784e-07 AU
i 3.009620432874794 7.4416e-06 deg
node 23.54926570517866 0.00013376 deg
peri 297.9093587753806 0.00013492 deg
M 38.27852230279963 1.4936e-05 deg
tp 2456494.160235231643
(2013-Jul-20.66023523)
0.00011868 JED
period 2881.049441883566
7.89
6.6721e-05
1.827e-07
d
yr
n .1249544678985585 2.8938e-09 deg/d
Q 4.802235299138634 7.4142e-08 AU
  Orbit Determination Parameters
   # obs. used (total)      588  
   data-arc span      8442 days (23.11 yr)  
   first obs. used      1990-10-18  
   last obs. used      2013-11-28  
   planetary ephem.      DE431  
   SB-pert. ephem.      SB431-BIG16  
   condition code      0  
   fit RMS      .62001  
   data source      ORB  
   producer      Otto Matic  
   solution date      2014-Jun-10 04:36:13  

Additional Information
 Earth MOID = 2.11071 AU 
 T_jup = 3.016 
[ show covariance matrix ]

Ephemeris | Orbit Diagram | Orbital Elements | Physical Parameters | Discovery Circumstances | Close-Approach Data ]

Physical Parameter Table
Parameter Symbol Value Units Sigma Reference Notes
absolute magnitude H 13.1 mag n/a MPO267834  

38046 Krasnoyarsk           Discovered 1998 Sept. 20 by E. W. Elst at the European Southern Observatory.
The Siberian city of Krasnoyarsk was founded in 1628 as a trading post along the Yenisei river. In 1772 the German zoologist and botanist Peter Simon Pallas (1741-1811) was shown there a 700-kg lump of metal that he identified as a new type of stony-iron meteorite, now known as a pallasite.
NOTE: some special characters may not display properly (any characters within {} are an attempt to place the proper accent above a character)
Reference: 20060809/MPCPages.arcLast Updated: 2007-08-08

[ show close-approach data ]
Alternate Designations
 1998 SW144 = 1998 UX40 
Ephemeris | Orbit Diagram | Orbital Elements | Physical Parameters | Discovery Circumstances | Close-Approach Data ]
ABOUT SSD CREDITS/AWARDS PRIVACY/COPYRIGHT GLOSSARY LINKS
FirstGov 2014-Jul-24 20:01 UT
(server date/time)  
NASA Home Page
Site Manager:   Donald K. Yeomans
Webmaster  Alan B. Chamberlin